MSR109 HECA-LEMD

Flight info

Callsign MSR109
Flight time N/A
Altitude 32000
Route CVO L617 NABSI M872 METRU DCT ARLOS DCT DINUX/N0458F340 DCT SONAK DCT MORJA UA411 ANB UM134 LUXUR DCT GENIO DCT XARON DCT OLMIR DCT NINES/N0453F350 M134 VLC N733 CLS/N0454F360 DCT WALLY DCT CATON DCT CENTA/N0340F130 N733 PRADO
Aircraft A321/M-SDE3FGHIRWY/LB1

Departure

Time 2026-05-07 16:42
Airport Cairo International Airport (HECA)

Arrival

Time N/A
Airport Adolfo Suárez Madrid–Barajas Airport (LEMD)
Time Latitude Longitude Altitude Speed Heading
2026-05-07 16:24 30.11200 31.40780 374 ft 0 kts 320°
2026-05-07 16:33 30.11200 31.40781 374 ft 2 kts 320°
2026-05-07 16:33 30.11181 31.40800 374 ft 4 kts 312°
2026-05-07 16:33 30.11165 31.40825 374 ft 4 kts 293°
2026-05-07 16:34 30.11161 31.40852 374 ft 4 kts 244°
2026-05-07 16:34 30.11164 31.40860 374 ft 0 kts 229°
2026-05-07 16:37 30.11161 31.40855 374 ft 2 kts 229°
2026-05-07 16:37 30.11144 31.40833 356 ft 5 kts 229°
2026-05-07 16:37 30.11109 31.40787 374 ft 10 kts 229°
2026-05-07 16:38 30.11056 31.40715 374 ft 14 kts 229°
2026-05-07 16:38 30.10985 31.40622 374 ft 17 kts 229°
2026-05-07 16:38 30.10896 31.40503 374 ft 21 kts 229°
2026-05-07 16:38 30.10794 31.40367 374 ft 24 kts 228°
2026-05-07 16:39 30.10676 31.40212 374 ft 27 kts 229°
2026-05-07 16:39 30.10549 31.40046 374 ft 29 kts 229°
2026-05-07 16:39 30.10419 31.39873 374 ft 29 kts 229°
2026-05-07 16:39 30.10294 31.39706 374 ft 28 kts 229°
2026-05-07 16:40 30.10185 31.39579 374 ft 17 kts 200°
2026-05-07 16:40 30.10084 31.39635 374 ft 18 kts 138°
2026-05-07 16:40 30.10010 31.39727 374 ft 16 kts 115°
2026-05-07 16:40 30.10016 31.39866 371 ft 20 kts 76°
2026-05-07 16:41 30.10125 31.40035 372 ft 48 kts 49°
2026-05-07 16:41 30.10485 31.40510 378 ft 108 kts 49°
2026-05-07 16:41 30.11093 31.41320 375 ft 157 kts 49°
2026-05-07 16:41 30.11873 31.42360 718 ft 176 kts 47°
2026-05-07 16:42 30.12700 31.43437 1324 ft 180 kts 48°
2026-05-07 16:42 30.13647 31.44401 1799 ft 190 kts 28°
2026-05-07 16:42 30.14987 31.44629 1917 ft 213 kts 353°
2026-05-07 16:42 30.16381 31.43826 2073 ft 241 kts 321°
2026-05-07 16:43 30.17422 31.42196 2396 ft 259 kts 308°
2026-05-07 16:43 30.18479 31.40506 2970 ft 261 kts 311°
2026-05-07 16:43 30.19619 31.38870 3567 ft 261 kts 316°
2026-05-07 16:43 30.20855 31.37335 4213 ft 261 kts 317°
2026-05-07 16:44 30.22112 31.35829 4839 ft 260 kts 317°
2026-05-07 16:44 30.23378 31.34329 5441 ft 261 kts 317°
2026-05-07 16:44 30.24655 31.32816 5972 ft 265 kts 316°
2026-05-07 16:44 30.25944 31.31282 6539 ft 267 kts 316°
2026-05-07 16:45 30.27246 31.29729 7022 ft 271 kts 316°
2026-05-07 16:45 30.28560 31.28161 7549 ft 272 kts 316°
2026-05-07 16:45 30.29879 31.26586 8110 ft 273 kts 316°
2026-05-07 16:45 30.31201 31.25000 8625 ft 275 kts 316°
2026-05-07 16:46 30.32528 31.23404 9116 ft 278 kts 315°
2026-05-07 16:46 30.33877 31.21781 9594 ft 281 kts 315°
2026-05-07 16:46 30.35239 31.20141 10095 ft 283 kts 315°
2026-05-07 16:46 30.36629 31.18466 10322 ft 296 kts 315°
2026-05-07 16:47 30.38094 31.16702 10450 ft 312 kts 315°
2026-05-07 16:47 30.39633 31.14850 10575 ft 326 kts 315°
2026-05-07 16:47 30.41244 31.12915 10698 ft 340 kts 315°
2026-05-07 16:47 30.42915 31.10906 10844 ft 352 kts 315°
2026-05-07 16:48 30.44628 31.08845 11238 ft 356 kts 315°
2026-05-07 16:48 30.46344 31.06773 11711 ft 357 kts 315°
2026-05-07 16:48 30.48069 31.04690 12147 ft 359 kts 315°
2026-05-07 16:48 30.49803 31.02594 12584 ft 362 kts 315°
2026-05-07 16:49 30.51557 31.00477 12962 ft 366 kts 315°
2026-05-07 16:49 30.53321 30.98348 13388 ft 368 kts 315°
2026-05-07 16:49 30.55100 30.96199 13799 ft 370 kts 315°
2026-05-07 16:49 30.56886 30.94037 14187 ft 372 kts 315°
2026-05-07 16:50 30.58677 30.91868 14590 ft 373 kts 315°
2026-05-07 16:50 30.60478 30.89688 14972 ft 375 kts 315°
2026-05-07 16:50 30.62285 30.87498 15354 ft 377 kts 315°
2026-05-07 16:50 30.64101 30.85293 15744 ft 379 kts 315°
2026-05-07 16:51 30.65929 30.83072 16119 ft 381 kts 315°
2026-05-07 16:51 30.67762 30.80844 16512 ft 383 kts 315°
2026-05-07 16:51 30.69606 30.78601 16875 ft 385 kts 315°
2026-05-07 16:51 30.71462 30.76343 17233 ft 387 kts 315°
2026-05-07 16:52 30.73329 30.74075 17588 ft 389 kts 315°
2026-05-07 16:52 30.75204 30.71796 17945 ft 391 kts 315°
2026-05-07 16:52 30.77083 30.69507 18298 ft 393 kts 314°
2026-05-07 16:52 30.78974 30.67199 18603 ft 395 kts 314°
2026-05-07 16:53 30.80873 30.64880 18904 ft 396 kts 314°
2026-05-07 16:53 30.82779 30.62554 19213 ft 398 kts 314°
2026-05-07 16:53 30.84689 30.60224 19545 ft 398 kts 314°
2026-05-07 16:53 30.86603 30.57886 19866 ft 399 kts 314°
2026-05-07 16:54 30.88522 30.55538 20183 ft 401 kts 314°
2026-05-07 16:54 30.90444 30.53186 20496 ft 402 kts 314°
2026-05-07 16:54 30.92375 30.50823 20811 ft 403 kts 314°
2026-05-07 16:54 30.94313 30.48453 21119 ft 405 kts 314°
2026-05-07 16:55 30.96255 30.46078 21427 ft 406 kts 314°
2026-05-07 16:55 30.98204 30.43691 21733 ft 407 kts 314°
2026-05-07 16:55 31.00156 30.41295 22033 ft 408 kts 313°
2026-05-07 16:55 31.02113 30.38889 22322 ft 409 kts 313°
2026-05-07 16:56 31.04074 30.36477 22622 ft 410 kts 313°
2026-05-07 16:56 31.06039 30.34058 22914 ft 412 kts 313°
2026-05-07 16:56 31.09433 30.28689 23469 ft 415 kts 296°
2026-05-07 16:57 31.10467 30.25546 23723 ft 417 kts 289°
2026-05-07 16:57 31.11344 30.22315 23950 ft 418 kts 289°
2026-05-07 16:57 31.12225 30.19078 24179 ft 419 kts 289°
2026-05-07 16:57 31.13109 30.15835 24423 ft 420 kts 289°
2026-05-07 16:58 31.13999 30.12579 24658 ft 421 kts 289°
2026-05-07 16:58 31.14891 30.09316 24893 ft 422 kts 289°
2026-05-07 16:58 31.15784 30.06043 25132 ft 423 kts 289°
2026-05-07 16:58 31.16663 30.02810 25363 ft 424 kts 289°
2026-05-07 16:59 31.17565 29.99479 25581 ft 425 kts 289°
2026-05-07 16:59 31.18532 29.96263 25796 ft 425 kts 295°
2026-05-07 16:59 31.19933 29.93235 26016 ft 424 kts 305°
2026-05-07 16:59 31.21657 29.90447 26226 ft 424 kts 307°
2026-05-07 17:00 31.23408 29.87661 26454 ft 425 kts 307°
2026-05-07 17:00 31.25153 29.84867 26674 ft 426 kts 307°
2026-05-07 17:00 31.26897 29.82065 26882 ft 427 kts 307°
2026-05-07 17:00 31.28644 29.79258 27121 ft 427 kts 307°
2026-05-07 17:01 31.30390 29.76454 27341 ft 427 kts 307°
2026-05-07 17:01 31.32141 29.73648 27528 ft 428 kts 307°
2026-05-07 17:01 31.33894 29.70835 27711 ft 428 kts 307°
2026-05-07 17:01 31.35646 29.68015 27890 ft 429 kts 307°
2026-05-07 17:02 31.37400 29.65190 28095 ft 428 kts 307°
2026-05-07 17:02 31.39147 29.62375 28348 ft 427 kts 307°
2026-05-07 17:02 31.40888 29.59567 28599 ft 426 kts 308°
2026-05-07 17:02 31.42622 29.56766 28846 ft 424 kts 308°
2026-05-07 17:03 31.44352 29.53971 29093 ft 423 kts 308°
2026-05-07 17:03 31.46076 29.51190 29395 ft 420 kts 308°
2026-05-07 17:03 31.47781 29.48437 29727 ft 416 kts 308°
2026-05-07 17:03 31.49474 29.45699 30020 ft 414 kts 308°
2026-05-07 17:04 31.51160 29.42969 30124 ft 410 kts 308°
2026-05-07 17:04 31.52820 29.40276 30139 ft 406 kts 308°
2026-05-07 17:04 31.56118 29.34927 30141 ft 404 kts 308°
2026-05-07 17:05 31.59407 29.29588 30139 ft 404 kts 308°
2026-05-07 17:05 31.62691 29.24241 30137 ft 404 kts 308°
2026-05-07 17:06 31.65961 29.18904 30149 ft 402 kts 309°
2026-05-07 17:06 31.69225 29.13577 30162 ft 402 kts 308°
2026-05-07 17:07 31.72480 29.08238 30161 ft 402 kts 308°
2026-05-07 17:07 31.75741 29.02893 30160 ft 402 kts 308°
2026-05-07 17:08 31.78999 28.97546 30160 ft 402 kts 308°
2026-05-07 17:08 31.82255 28.92200 30156 ft 402 kts 308°
2026-05-07 17:09 31.85481 28.86894 30171 ft 401 kts 308°
2026-05-07 17:09 31.88726 28.81553 30170 ft 401 kts 308°
2026-05-07 17:10 31.91964 28.76211 30176 ft 401 kts 308°
2026-05-07 17:10 31.95198 28.70860 30178 ft 401 kts 308°
2026-05-07 17:11 31.98432 28.65515 30162 ft 401 kts 308°
2026-05-07 17:11 32.01134 28.61036 30176 ft 400 kts 308°
2026-05-07 17:12 32.04350 28.55693 30185 ft 400 kts 308°
2026-05-07 17:12 32.07562 28.50355 30186 ft 399 kts 308°
2026-05-07 17:13 32.10774 28.45020 30191 ft 399 kts 308°
2026-05-07 17:13 32.13986 28.39679 30184 ft 399 kts 308°
2026-05-07 17:14 32.17192 28.34332 30169 ft 399 kts 308°
2026-05-07 17:14 32.20387 28.28994 30179 ft 398 kts 308°
2026-05-07 17:15 32.23560 28.23692 30184 ft 398 kts 308°
2026-05-07 17:15 32.26750 28.18354 30187 ft 397 kts 308°
2026-05-07 17:16 32.29928 28.13010 30187 ft 397 kts 308°
2026-05-07 17:16 32.33105 28.07668 30187 ft 397 kts 308°
2026-05-07 17:17 32.36283 28.02328 30176 ft 397 kts 308°
2026-05-07 17:17 32.39455 27.96979 30181 ft 397 kts 308°
2026-05-07 17:18 32.42628 27.91622 30184 ft 397 kts 308°
2026-05-07 17:18 32.45796 27.86266 30184 ft 397 kts 308°
2026-05-07 17:19 32.48965 27.80912 30183 ft 397 kts 308°
2026-05-07 17:19 32.52129 27.75555 30191 ft 397 kts 307°
2026-05-07 17:20 32.55292 27.70185 30184 ft 397 kts 308°
2026-05-07 17:20 32.58458 27.64810 30181 ft 398 kts 307°
2026-05-07 17:21 32.61620 27.59426 30173 ft 398 kts 307°
2026-05-07 17:21 32.64776 27.54042 30174 ft 398 kts 307°
2026-05-07 17:22 32.67936 27.48650 30177 ft 398 kts 307°
2026-05-07 17:22 32.71096 27.43263 30171 ft 397 kts 307°
2026-05-07 17:23 32.74247 27.37870 30175 ft 397 kts 307°
2026-05-07 17:23 32.77384 27.32470 30180 ft 397 kts 307°
2026-05-07 17:24 32.80518 27.27069 30175 ft 397 kts 307°
2026-05-07 17:24 32.83651 27.21673 30178 ft 397 kts 307°
2026-05-07 17:25 32.86785 27.16269 30166 ft 397 kts 307°
2026-05-07 17:25 32.89912 27.10862 30167 ft 397 kts 307°
2026-05-07 17:26 32.93039 27.05442 30174 ft 397 kts 307°
2026-05-07 17:26 32.96172 27.00023 30172 ft 397 kts 307°
2026-05-07 17:27 32.99304 26.94599 30173 ft 398 kts 306°
2026-05-07 17:27 33.02428 26.89156 30175 ft 398 kts 306°
2026-05-07 17:28 33.05545 26.83714 30174 ft 397 kts 307°
2026-05-07 17:28 33.08629 26.78330 30182 ft 395 kts 307°
2026-05-07 17:29 33.11740 26.72882 30190 ft 394 kts 307°
2026-05-07 17:29 33.14796 26.67509 30186 ft 394 kts 307°
2026-05-07 17:30 33.17873 26.62108 30182 ft 393 kts 307°
2026-05-07 17:30 33.20950 26.56713 30178 ft 393 kts 307°
2026-05-07 17:31 33.24017 26.51325 30184 ft 391 kts 307°
2026-05-07 17:31 33.27064 26.45960 30187 ft 390 kts 307°
2026-05-07 17:32 33.30097 26.40598 30196 ft 389 kts 306°
2026-05-07 17:32 33.33131 26.35233 30190 ft 389 kts 307°
2026-05-07 17:33 33.36168 26.29869 30184 ft 389 kts 307°
2026-05-07 17:33 33.39199 26.24500 30175 ft 389 kts 306°
2026-05-07 17:34 33.42215 26.19127 30182 ft 388 kts 306°
2026-05-07 17:34 33.45225 26.13767 30185 ft 388 kts 306°
2026-05-07 17:35 33.48233 26.08404 30184 ft 387 kts 306°
2026-05-07 17:35 33.51241 26.03050 30179 ft 387 kts 306°
2026-05-07 17:36 33.54241 25.97697 30180 ft 387 kts 306°
2026-05-07 17:36 33.57237 25.92342 30169 ft 386 kts 306°
2026-05-07 17:37 33.60226 25.86998 30174 ft 386 kts 306°
2026-05-07 17:37 33.63210 25.81649 30175 ft 386 kts 306°
2026-05-07 17:38 33.66187 25.76300 30176 ft 385 kts 306°
2026-05-07 17:38 33.69161 25.70950 30178 ft 385 kts 306°
2026-05-07 17:39 33.72134 25.65589 30189 ft 386 kts 306°
2026-05-07 17:39 33.75111 25.60230 30168 ft 386 kts 305°
2026-05-07 17:40 33.78088 25.54860 30170 ft 386 kts 305°
2026-05-07 17:40 33.81062 25.49477 30169 ft 386 kts 305°
2026-05-07 17:41 33.84028 25.44092 30170 ft 387 kts 305°
2026-05-07 17:41 33.86977 25.38729 30170 ft 387 kts 305°
2026-05-07 17:42 33.89963 25.33297 30174 ft 387 kts 305°
2026-05-07 17:42 33.92935 25.27893 30168 ft 387 kts 305°
2026-05-07 17:43 33.95916 25.22477 30164 ft 388 kts 304°
2026-05-07 17:43 33.98869 25.17088 30169 ft 388 kts 304°
2026-05-07 17:44 34.01156 25.11182 30167 ft 392 kts 293°
2026-05-07 17:44 34.03007 25.05007 30169 ft 392 kts 293°
2026-05-07 17:45 34.04869 24.98831 30154 ft 392 kts 292°
2026-05-07 17:45 34.06727 24.92646 30154 ft 393 kts 292°
2026-05-07 17:46 34.08581 24.86448 30154 ft 393 kts 292°
2026-05-07 17:46 34.10438 24.80239 30157 ft 393 kts 292°
2026-05-07 17:47 34.12290 24.74031 30156 ft 393 kts 292°
2026-05-07 17:47 34.14137 24.67813 30159 ft 393 kts 292°
2026-05-07 17:48 34.15979 24.61598 30158 ft 393 kts 292°
2026-05-07 17:48 34.17817 24.55375 30159 ft 393 kts 292°
2026-05-07 17:49 34.19655 24.49155 30172 ft 393 kts 292°
2026-05-07 17:49 34.21487 24.42932 30168 ft 393 kts 292°
2026-05-07 17:50 34.23320 24.36706 30146 ft 393 kts 292°
2026-05-07 17:50 34.25150 24.30478 30142 ft 394 kts 292°
2026-05-07 17:51 34.26979 24.24233 30141 ft 394 kts 292°
2026-05-07 17:51 34.28807 24.17981 30144 ft 395 kts 292°
2026-05-07 17:52 34.30631 24.11716 30142 ft 395 kts 292°
2026-05-07 17:52 34.32450 24.05450 30139 ft 395 kts 291°
2026-05-07 17:53 34.34267 23.99184 30142 ft 395 kts 291°
2026-05-07 17:53 34.36087 23.92920 30148 ft 394 kts 291°
2026-05-07 17:54 34.37902 23.86654 30150 ft 394 kts 291°
2026-05-07 17:54 34.39707 23.80386 30151 ft 394 kts 291°
2026-05-07 17:55 34.41515 23.74117 30140 ft 394 kts 291°
2026-05-07 17:55 34.43308 23.67843 30155 ft 394 kts 291°
2026-05-07 17:56 34.44795 23.62637 30152 ft 393 kts 291°
2026-05-07 17:56 34.46587 23.56385 30154 ft 393 kts 291°
2026-05-07 17:57 34.48370 23.50128 30155 ft 393 kts 291°
2026-05-07 17:57 34.50154 23.43878 30155 ft 393 kts 291°
2026-05-07 17:58 34.51929 23.37627 30166 ft 391 kts 292°
2026-05-07 17:58 34.53695 23.31413 30168 ft 389 kts 291°
2026-05-07 17:59 34.55447 23.25217 30163 ft 388 kts 291°
2026-05-07 17:59 34.57190 23.19032 30165 ft 387 kts 291°
2026-05-07 18:00 34.58925 23.12862 30160 ft 386 kts 291°
2026-05-07 18:00 34.60656 23.06699 30157 ft 386 kts 291°
2026-05-07 18:01 34.62372 23.00527 30158 ft 386 kts 291°
2026-05-07 18:01 34.63875 22.94265 30140 ft 387 kts 288°
2026-05-07 18:02 34.65876 22.84766 30140 ft 387 kts 288°
2026-05-07 18:03 34.67224 22.78443 30129 ft 387 kts 288°
2026-05-07 18:03 34.68587 22.72112 30117 ft 388 kts 288°
2026-05-07 18:04 34.69966 22.65755 30104 ft 389 kts 288°
2026-05-07 18:04 34.71332 22.59377 30104 ft 390 kts 288°
2026-05-07 18:05 34.72692 22.52990 30102 ft 391 kts 288°
2026-05-07 18:05 34.74067 22.46595 30101 ft 391 kts 288°
2026-05-07 18:06 34.75435 22.40200 30089 ft 391 kts 287°
2026-05-07 18:06 34.76791 22.33783 30088 ft 392 kts 287°
2026-05-07 18:07 34.78149 22.27361 30083 ft 392 kts 287°
2026-05-07 18:07 34.79515 22.20936 30084 ft 392 kts 287°
2026-05-07 18:08 34.80868 22.14506 30079 ft 392 kts 287°
2026-05-07 18:08 34.82215 22.08070 30069 ft 393 kts 286°
2026-05-07 18:09 34.83564 22.01663 30065 ft 394 kts 286°
2026-05-07 18:09 34.84930 21.95204 30069 ft 394 kts 286°
2026-05-07 18:10 34.86276 21.88733 30063 ft 395 kts 286°
2026-05-07 18:10 34.87622 21.82251 30071 ft 395 kts 286°
2026-05-07 18:11 34.88965 21.75766 30047 ft 395 kts 285°
2026-05-07 18:11 34.90307 21.69268 30055 ft 396 kts 285°
2026-05-07 18:12 34.91648 21.62755 30059 ft 397 kts 285°
2026-05-07 18:12 34.92985 21.56233 30062 ft 397 kts 285°
2026-05-07 18:13 34.94320 21.49707 30059 ft 397 kts 285°
2026-05-07 18:13 34.95655 21.43177 30065 ft 397 kts 285°
2026-05-07 18:14 34.96989 21.36644 30059 ft 397 kts 285°
2026-05-07 18:14 34.98325 21.30117 30061 ft 397 kts 285°
2026-05-07 18:15 34.99646 21.23580 30071 ft 397 kts 285°
2026-05-07 18:15 35.00956 21.17037 30072 ft 397 kts 285°
2026-05-07 18:16 35.02275 21.10495 30064 ft 397 kts 284°
2026-05-07 18:16 35.03596 21.03940 30053 ft 398 kts 284°
2026-05-07 18:17 35.04910 20.97369 30048 ft 399 kts 284°
2026-05-07 18:17 35.06212 20.90798 30052 ft 399 kts 284°
2026-05-07 18:18 35.07521 20.84215 30054 ft 399 kts 284°
2026-05-07 18:18 35.08824 20.77642 30041 ft 398 kts 284°
2026-05-07 18:19 35.10130 20.71071 30054 ft 398 kts 284°
2026-05-07 18:19 35.11427 20.64511 30057 ft 397 kts 284°
2026-05-07 18:20 35.12717 20.57948 30054 ft 397 kts 284°
2026-05-07 18:20 35.14002 20.51390 30053 ft 397 kts 284°
2026-05-07 18:21 35.15278 20.44827 30056 ft 397 kts 284°
2026-05-07 18:21 35.16558 20.38272 30057 ft 397 kts 284°
2026-05-07 18:22 35.17826 20.31715 30052 ft 396 kts 284°
2026-05-07 18:22 35.19094 20.25156 30053 ft 396 kts 284°
2026-05-07 18:23 35.20348 20.18647 30050 ft 396 kts 284°
2026-05-07 18:23 35.21602 20.12087 30051 ft 396 kts 284°
2026-05-07 18:24 35.22868 20.05529 30024 ft 396 kts 284°
2026-05-07 18:24 35.24132 19.98964 30028 ft 397 kts 284°
2026-05-07 18:25 35.25379 19.92388 30023 ft 397 kts 284°
2026-05-07 18:25 35.26628 19.85806 30029 ft 397 kts 284°
2026-05-07 18:26 35.27869 19.79226 30006 ft 397 kts 283°
2026-05-07 18:26 35.29107 19.72631 30010 ft 398 kts 283°
2026-05-07 18:27 35.30357 19.66034 30001 ft 399 kts 283°
2026-05-07 18:27 35.31601 19.59418 30005 ft 399 kts 283°
2026-05-07 18:28 35.32834 19.52782 30009 ft 400 kts 283°
2026-05-07 18:28 35.34067 19.46140 30026 ft 400 kts 283°
2026-05-07 18:29 35.35301 19.39497 30017 ft 400 kts 283°
2026-05-07 18:29 35.36527 19.32884 30016 ft 400 kts 283°
2026-05-07 18:30 35.37755 19.26226 30016 ft 400 kts 283°
2026-05-07 18:30 35.38987 19.19524 30011 ft 400 kts 283°
2026-05-07 18:31 35.40211 19.12862 30008 ft 401 kts 283°
2026-05-07 18:31 35.41424 19.06248 30021 ft 400 kts 283°
2026-05-07 18:32 35.42638 18.99586 30022 ft 400 kts 283°
2026-05-07 18:32 35.43843 18.92931 30018 ft 400 kts 283°
2026-05-07 18:33 35.45047 18.86277 30016 ft 399 kts 282°
2026-05-07 18:33 35.46243 18.79626 30010 ft 399 kts 283°
2026-05-07 18:34 35.47436 18.72981 30009 ft 399 kts 282°
2026-05-07 18:34 35.48627 18.66338 30005 ft 399 kts 282°
2026-05-07 18:35 35.49815 18.59690 30005 ft 399 kts 282°
2026-05-07 18:35 35.50995 18.53045 30001 ft 399 kts 282°
2026-05-07 18:36 35.52175 18.46392 30002 ft 399 kts 282°
2026-05-07 18:36 35.53355 18.39730 30000 ft 400 kts 282°
2026-05-07 18:37 35.54531 18.33053 29980 ft 400 kts 281°
2026-05-07 18:37 35.55698 18.26364 29983 ft 401 kts 281°
2026-05-07 18:38 35.56869 18.19665 29996 ft 401 kts 281°
2026-05-07 18:38 35.58038 18.12971 29989 ft 401 kts 281°
2026-05-07 18:39 35.59199 18.06279 29994 ft 401 kts 281°
2026-05-07 18:39 35.60357 17.99581 29991 ft 401 kts 281°
2026-05-07 18:40 35.61502 17.92882 29986 ft 401 kts 281°
2026-05-07 18:40 35.62653 17.86186 29979 ft 401 kts 281°
2026-05-07 18:41 35.63809 17.79492 29984 ft 400 kts 281°
2026-05-07 18:41 35.64947 17.72838 29985 ft 400 kts 281°
2026-05-07 18:42 35.66081 17.66135 29981 ft 401 kts 281°
2026-05-07 18:42 35.67212 17.59418 29979 ft 401 kts 281°
2026-05-07 18:43 35.68350 17.52708 29977 ft 401 kts 281°
2026-05-07 18:43 35.69480 17.45991 29967 ft 401 kts 281°
2026-05-07 18:44 35.70423 17.40359 29962 ft 401 kts 281°
2026-05-07 18:44 35.71536 17.33688 29974 ft 400 kts 280°
2026-05-07 18:45 35.72661 17.26942 29979 ft 399 kts 281°
2026-05-07 18:45 35.73768 17.20294 29968 ft 399 kts 280°
2026-05-07 18:46 35.74875 17.13610 29973 ft 399 kts 280°
2026-05-07 18:46 35.75971 17.06928 29985 ft 398 kts 280°
2026-05-07 18:47 35.77061 17.00247 29975 ft 397 kts 279°
2026-05-07 18:47 35.78158 16.93579 29967 ft 396 kts 279°
2026-05-07 18:48 35.79236 16.86934 29962 ft 395 kts 279°
2026-05-07 18:48 35.80310 16.80304 29958 ft 395 kts 279°
2026-05-07 18:49 35.81384 16.73676 29942 ft 395 kts 279°
2026-05-07 18:49 35.82453 16.67042 29950 ft 395 kts 279°
2026-05-07 18:50 35.83520 16.60397 29934 ft 395 kts 279°
2026-05-07 18:50 35.84580 16.53748 29929 ft 396 kts 278°
2026-05-07 18:51 35.85640 16.47089 29920 ft 396 kts 279°
2026-05-07 18:51 35.86703 16.40430 29922 ft 396 kts 278°
2026-05-07 18:52 35.87679 16.34248 29933 ft 396 kts 278°
2026-05-07 18:52 35.88729 16.27583 29935 ft 396 kts 278°
2026-05-07 18:53 35.89775 16.20928 29935 ft 395 kts 278°
2026-05-07 18:53 35.90819 16.14276 29929 ft 395 kts 278°
2026-05-07 18:54 35.91855 16.07630 29924 ft 394 kts 277°
2026-05-07 18:54 35.92872 16.01032 29916 ft 394 kts 277°
2026-05-07 18:55 35.93895 15.94392 29932 ft 394 kts 277°
2026-05-07 18:55 35.94916 15.87763 29920 ft 393 kts 277°
2026-05-07 18:56 35.95936 15.81134 29919 ft 393 kts 277°
2026-05-07 18:56 35.96952 15.74505 29912 ft 393 kts 277°
2026-05-07 18:57 35.97965 15.67879 29911 ft 393 kts 277°
2026-05-07 18:57 35.98970 15.61253 29920 ft 392 kts 276°
2026-05-07 18:58 35.99969 15.54635 29920 ft 392 kts 276°
2026-05-07 18:58 36.00962 15.48027 29914 ft 391 kts 276°
2026-05-07 18:59 36.01951 15.41431 29908 ft 390 kts 276°
2026-05-07 18:59 36.02930 15.34842 29903 ft 390 kts 276°
2026-05-07 19:00 36.03911 15.28260 29908 ft 389 kts 276°
2026-05-07 19:00 36.04889 15.21684 29905 ft 389 kts 275°
2026-05-07 19:01 36.05863 15.15104 29898 ft 389 kts 275°
2026-05-07 19:01 36.06825 15.08524 29893 ft 389 kts 275°
2026-05-07 19:02 36.07785 15.01946 29892 ft 389 kts 275°
2026-05-07 19:02 36.08752 14.95365 29889 ft 389 kts 275°
2026-05-07 19:03 36.09703 14.88783 29918 ft 388 kts 275°
2026-05-07 19:03 36.10653 14.82220 29913 ft 387 kts 275°
2026-05-07 19:04 36.11597 14.75672 29914 ft 386 kts 275°
2026-05-07 19:04 36.12536 14.69134 29908 ft 386 kts 275°
2026-05-07 19:05 36.13465 14.62604 29902 ft 385 kts 275°
2026-05-07 19:05 36.14392 14.56080 29895 ft 385 kts 275°
2026-05-07 19:06 36.15313 14.49599 29890 ft 385 kts 275°
2026-05-07 19:06 36.16703 14.39814 29886 ft 385 kts 275°
2026-05-07 19:07 36.17614 14.33288 29885 ft 385 kts 275°
2026-05-07 19:07 36.18525 14.26760 29883 ft 385 kts 275°
2026-05-07 19:08 36.19436 14.20235 29905 ft 385 kts 274°
2026-05-07 19:08 36.20344 14.13696 29905 ft 384 kts 274°
2026-05-07 19:09 36.21240 14.07176 29909 ft 384 kts 274°
2026-05-07 19:09 36.22133 14.00653 29908 ft 384 kts 274°
2026-05-07 19:10 36.23027 13.94142 29908 ft 384 kts 274°
2026-05-07 19:10 36.23911 13.87667 29906 ft 384 kts 274°
2026-05-07 19:11 36.24789 13.81141 29927 ft 384 kts 274°
2026-05-07 19:11 36.25670 13.74619 29920 ft 384 kts 274°
2026-05-07 19:12 36.26552 13.68084 29918 ft 385 kts 274°
2026-05-07 19:12 36.27433 13.61548 29919 ft 385 kts 274°
2026-05-07 19:13 36.28305 13.54995 29921 ft 385 kts 274°
2026-05-07 19:13 36.29175 13.48447 29952 ft 385 kts 273°
2026-05-07 19:14 36.30041 13.41900 29942 ft 385 kts 273°
2026-05-07 19:14 36.30903 13.35355 29935 ft 385 kts 273°
2026-05-07 19:15 36.31763 13.28852 29931 ft 384 kts 273°
2026-05-07 19:15 36.32624 13.22307 29927 ft 384 kts 273°
2026-05-07 19:16 36.33469 13.15772 29923 ft 384 kts 273°
2026-05-07 19:16 36.34313 13.09231 29939 ft 384 kts 273°
2026-05-07 19:17 36.35153 13.02698 29942 ft 383 kts 273°
2026-05-07 19:17 36.35987 12.96168 29936 ft 383 kts 273°
2026-05-07 19:18 36.36823 12.89642 29934 ft 383 kts 273°
2026-05-07 19:18 36.37656 12.83108 29930 ft 383 kts 273°
2026-05-07 19:19 36.38483 12.76571 29949 ft 383 kts 272°
2026-05-07 19:19 36.39301 12.70067 29935 ft 384 kts 272°
2026-05-07 19:20 36.40119 12.63507 29917 ft 385 kts 272°
2026-05-07 19:20 36.40937 12.56936 29920 ft 385 kts 272°
2026-05-07 19:21 36.41755 12.50355 29922 ft 386 kts 272°
2026-05-07 19:21 36.42572 12.43766 29929 ft 386 kts 272°
2026-05-07 19:22 36.43386 12.37178 29933 ft 386 kts 272°
2026-05-07 19:22 36.44190 12.30623 29914 ft 387 kts 272°
2026-05-07 19:23 36.44997 12.24013 29909 ft 387 kts 272°
2026-05-07 19:23 36.45800 12.17398 29905 ft 387 kts 272°
2026-05-07 19:24 36.46598 12.10777 29904 ft 387 kts 272°
2026-05-07 19:24 36.47392 12.04156 29929 ft 387 kts 271°
2026-05-07 19:25 36.48180 11.97551 29936 ft 386 kts 271°
2026-05-07 19:25 36.48965 11.90973 29935 ft 384 kts 271°
2026-05-07 19:26 36.49749 11.84451 29933 ft 384 kts 272°
2026-05-07 19:26 36.51553 11.78062 29926 ft 398 kts 285°
2026-05-07 19:27 36.53897 11.71816 29914 ft 398 kts 285°
2026-05-07 19:27 36.56231 11.65569 29944 ft 398 kts 285°
2026-05-07 19:28 36.58548 11.59329 29935 ft 397 kts 285°
2026-05-07 19:28 36.60849 11.53132 29929 ft 395 kts 285°
2026-05-07 19:29 36.62302 11.46744 29925 ft 376 kts 269°
2026-05-07 19:29 36.62848 11.40285 29918 ft 375 kts 269°
2026-05-07 19:30 36.63401 11.33829 29911 ft 375 kts 269°
2026-05-07 19:30 36.63959 11.27369 29921 ft 375 kts 269°
2026-05-07 19:31 36.64512 11.20887 29882 ft 377 kts 269°
2026-05-07 19:31 36.65059 11.14384 29875 ft 378 kts 269°
2026-05-07 19:32 36.65611 11.07860 29887 ft 379 kts 269°
2026-05-07 19:32 36.66156 11.01361 29892 ft 380 kts 269°
2026-05-07 19:33 36.66703 10.94806 29887 ft 381 kts 269°
2026-05-07 19:33 36.67248 10.88242 29899 ft 381 kts 269°
2026-05-07 19:34 36.67695 10.82746 29908 ft 381 kts 269°
2026-05-07 19:34 36.68224 10.76232 29905 ft 380 kts 269°
2026-05-07 19:35 36.68753 10.69673 29905 ft 380 kts 269°
2026-05-07 19:35 36.69273 10.63108 29905 ft 380 kts 269°
2026-05-07 19:36 36.69797 10.56554 29933 ft 380 kts 270°
2026-05-07 19:36 36.70317 10.50000 29877 ft 383 kts 270°
2026-05-07 19:37 36.70845 10.43356 29871 ft 386 kts 270°
2026-05-07 19:37 36.71368 10.36674 29873 ft 388 kts 270°
2026-05-07 19:38 36.71893 10.29968 29891 ft 389 kts 270°
2026-05-07 19:38 36.72399 10.23245 29898 ft 390 kts 270°
2026-05-07 19:39 36.72907 10.16515 29933 ft 390 kts 270°
2026-05-07 19:39 36.73418 10.09823 29924 ft 390 kts 270°
2026-05-07 19:40 36.73927 10.03076 29918 ft 391 kts 270°
2026-05-07 19:40 36.74432 9.96333 29913 ft 391 kts 270°
2026-05-07 19:41 36.74931 9.89590 29909 ft 391 kts 270°
2026-05-07 19:41 36.75422 9.82840 29937 ft 391 kts 271°
2026-05-07 19:42 36.75915 9.76067 29910 ft 393 kts 271°
2026-05-07 19:42 36.76409 9.69282 29901 ft 393 kts 271°
2026-05-07 19:43 36.76900 9.62477 29894 ft 394 kts 271°
2026-05-07 19:43 36.77382 9.55659 29892 ft 395 kts 271°
2026-05-07 19:44 36.77854 9.48874 29902 ft 395 kts 271°
2026-05-07 19:44 36.78333 9.42038 29930 ft 395 kts 271°
2026-05-07 19:45 36.78807 9.35225 29925 ft 394 kts 271°
2026-05-07 19:45 36.79278 9.28452 29920 ft 393 kts 271°
2026-05-07 19:46 36.79741 9.21656 29917 ft 393 kts 271°
2026-05-07 19:46 36.80200 9.14863 29917 ft 392 kts 271°
2026-05-07 19:47 36.80659 9.08075 29938 ft 392 kts 271°
2026-05-07 19:47 36.81113 9.01286 29934 ft 392 kts 271°
2026-05-07 19:48 36.81561 8.94504 29933 ft 392 kts 271°
2026-05-07 19:48 36.81999 8.87730 29927 ft 391 kts 271°
2026-05-07 19:49 36.82432 8.80958 29922 ft 391 kts 271°
2026-05-07 19:49 36.82862 8.74237 29919 ft 391 kts 271°
2026-05-07 19:50 36.83293 8.67457 29915 ft 392 kts 271°
2026-05-07 19:50 36.83579 8.60671 29892 ft 391 kts 268°
2026-05-07 19:51 36.83549 8.53869 29883 ft 392 kts 266°
2026-05-07 19:51 36.83472 8.47051 29877 ft 393 kts 266°
2026-05-07 19:52 36.83440 8.40232 29878 ft 393 kts 267°
2026-05-07 19:52 36.83432 8.33454 29892 ft 393 kts 268°
2026-05-07 19:53 36.83426 8.26554 29858 ft 397 kts 268°
2026-05-07 19:53 36.83414 8.19685 29859 ft 399 kts 268°
2026-05-07 19:54 36.83393 8.12740 29865 ft 401 kts 268°
2026-05-07 19:54 36.83369 8.05770 29871 ft 402 kts 268°
2026-05-07 19:55 36.83342 7.98785 29875 ft 402 kts 268°
2026-05-07 19:55 36.83305 7.91785 29864 ft 404 kts 268°
2026-05-07 19:56 36.83281 7.84739 29860 ft 408 kts 270°
2026-05-07 19:56 36.84448 7.77773 29867 ft 416 kts 289°
2026-05-07 19:57 36.86660 7.71071 29868 ft 418 kts 289°
2026-05-07 19:57 36.88838 7.64386 29872 ft 419 kts 288°
2026-05-07 19:58 36.91029 7.57631 29883 ft 420 kts 288°
2026-05-07 19:58 36.93225 7.50846 29871 ft 422 kts 288°
2026-05-07 19:59 36.95432 7.44020 29879 ft 425 kts 288°
2026-05-07 19:59 36.97651 7.37156 29880 ft 426 kts 288°
2026-05-07 20:00 36.99873 7.30269 29888 ft 427 kts 288°
2026-05-07 20:00 37.02085 7.23362 29913 ft 428 kts 288°
2026-05-07 20:01 37.04287 7.16482 29897 ft 430 kts 288°
2026-05-07 20:01 37.06507 7.09532 29886 ft 431 kts 288°
2026-05-07 20:02 37.08740 7.02544 29891 ft 432 kts 288°
2026-05-07 20:02 37.10966 6.95560 29896 ft 432 kts 288°
2026-05-07 20:03 37.13186 6.88553 29894 ft 432 kts 288°
2026-05-07 20:03 37.15412 6.81540 29922 ft 432 kts 286°
2026-05-07 20:04 37.17623 6.74534 29921 ft 432 kts 286°
2026-05-07 20:04 37.19826 6.67533 29938 ft 431 kts 286°
2026-05-07 20:05 37.22025 6.60533 29929 ft 431 kts 286°
2026-05-07 20:05 37.24223 6.53547 29935 ft 430 kts 286°
2026-05-07 20:06 37.26406 6.46556 29944 ft 430 kts 286°
2026-05-07 20:06 37.28586 6.39559 29928 ft 430 kts 285°
2026-05-07 20:07 37.30746 6.32606 29938 ft 430 kts 285°
2026-05-07 20:07 37.32926 6.25587 29917 ft 432 kts 285°
2026-05-07 20:08 37.35105 6.18549 29916 ft 433 kts 285°
2026-05-07 20:08 37.37291 6.11487 29916 ft 434 kts 285°
2026-05-07 20:09 37.39473 6.04412 29943 ft 433 kts 285°
2026-05-07 20:10 37.42723 5.93825 29953 ft 431 kts 285°
2026-05-07 20:10 37.44880 5.86788 29951 ft 430 kts 285°
2026-05-07 20:11 37.47022 5.79761 29947 ft 430 kts 285°
2026-05-07 20:11 37.49160 5.72731 29948 ft 429 kts 285°
2026-05-07 20:12 37.51292 5.65729 29984 ft 426 kts 286°
2026-05-07 20:12 37.53400 5.58790 29977 ft 422 kts 286°
2026-05-07 20:13 37.55476 5.51943 29967 ft 419 kts 286°
2026-05-07 20:13 37.57548 5.45092 29967 ft 417 kts 285°
2026-05-07 20:14 37.59601 5.38252 29995 ft 417 kts 285°
2026-05-07 20:14 37.61655 5.31386 29963 ft 419 kts 286°
2026-05-07 20:15 37.63706 5.24530 29978 ft 416 kts 286°
2026-05-07 20:15 37.65744 5.17731 29978 ft 413 kts 286°
2026-05-07 20:16 37.67762 5.10962 29970 ft 411 kts 286°
2026-05-07 20:16 37.69762 5.04207 29964 ft 410 kts 286°
2026-05-07 20:17 37.71760 4.97513 29957 ft 410 kts 287°
2026-05-07 20:17 37.73930 4.90863 29970 ft 407 kts 288°
2026-05-07 20:18 37.76134 4.84298 29965 ft 405 kts 288°
2026-05-07 20:18 37.78298 4.77735 29963 ft 404 kts 288°
2026-05-07 20:19 37.80432 4.71166 29963 ft 403 kts 288°
2026-05-07 20:19 37.82551 4.64597 29960 ft 403 kts 288°
2026-05-07 20:20 37.84670 4.58034 29960 ft 403 kts 288°
2026-05-07 20:20 37.86777 4.51514 29975 ft 401 kts 288°
2026-05-07 20:21 37.88886 4.44947 29945 ft 404 kts 288°
2026-05-07 20:21 37.91006 4.38343 29925 ft 405 kts 288°
2026-05-07 20:22 37.93133 4.31715 29929 ft 406 kts 288°
2026-05-07 20:22 37.95241 4.25122 29926 ft 407 kts 288°
2026-05-07 20:23 37.97369 4.18466 29949 ft 407 kts 289°
2026-05-07 20:23 37.99484 4.11824 29964 ft 405 kts 289°
2026-05-07 20:24 38.01581 4.05221 29963 ft 403 kts 289°
2026-05-07 20:24 38.03664 3.98632 29961 ft 402 kts 289°
2026-05-07 20:25 38.05740 3.92060 29961 ft 401 kts 289°
2026-05-07 20:25 38.07462 3.86600 29958 ft 401 kts 289°
2026-05-07 20:26 38.09867 3.78958 29958 ft 400 kts 289°
2026-05-07 20:26 38.11592 3.73469 29965 ft 399 kts 289°
2026-05-07 20:27 38.13627 3.66977 29987 ft 398 kts 289°
2026-05-07 20:27 38.15686 3.60387 29925 ft 403 kts 288°
2026-05-07 20:28 38.17755 3.53735 29919 ft 405 kts 288°
2026-05-07 20:28 38.19829 3.47057 29923 ft 407 kts 288°
2026-05-07 20:29 38.21902 3.40359 29924 ft 407 kts 288°
2026-05-07 20:29 38.23888 3.33664 29934 ft 407 kts 287°
2026-05-07 20:30 38.25842 3.26908 29939 ft 407 kts 287°
2026-05-07 20:30 38.27797 3.20158 29955 ft 407 kts 287°
2026-05-07 20:31 38.29866 3.13449 29952 ft 409 kts 292°
2026-05-07 20:31 38.32356 3.06947 29951 ft 408 kts 292°
2026-05-07 20:32 38.34836 3.00433 29955 ft 407 kts 293°
2026-05-07 20:32 38.37275 2.93985 29959 ft 405 kts 292°
2026-05-07 20:33 38.39708 2.87506 29960 ft 404 kts 292°
2026-05-07 20:33 38.42144 2.81056 29960 ft 403 kts 292°
2026-05-07 20:34 38.44579 2.74602 29958 ft 403 kts 292°
2026-05-07 20:34 38.46982 2.68198 29957 ft 402 kts 292°
2026-05-07 20:35 38.49398 2.61760 29966 ft 401 kts 293°
2026-05-07 20:35 38.51797 2.55359 29967 ft 398 kts 293°
2026-05-07 20:36 38.54180 2.48972 29974 ft 397 kts 293°
2026-05-07 20:36 38.56554 2.42623 29967 ft 396 kts 293°
2026-05-07 20:37 38.58916 2.36270 29973 ft 395 kts 293°
2026-05-07 20:37 38.61269 2.29916 29967 ft 395 kts 293°
2026-05-07 20:38 38.63572 2.23694 29961 ft 382 kts 293°
2026-05-07 20:38 38.65862 2.17517 29951 ft 387 kts 293°
2026-05-07 20:39 38.68165 2.11280 29953 ft 387 kts 293°
2026-05-07 20:39 38.70462 2.05031 29953 ft 387 kts 293°
2026-05-07 20:40 38.72746 1.98788 29953 ft 387 kts 293°
2026-05-07 20:40 38.75032 1.92555 29950 ft 387 kts 293°
2026-05-07 20:41 38.77316 1.86336 29975 ft 384 kts 294°
2026-05-07 20:41 38.79551 1.80206 29975 ft 380 kts 293°
2026-05-07 20:42 38.81778 1.74085 29981 ft 377 kts 293°
2026-05-07 20:42 38.83987 1.67998 29987 ft 376 kts 293°
2026-05-07 20:43 38.86188 1.61918 29983 ft 375 kts 293°
2026-05-07 20:43 38.88383 1.55857 30018 ft 374 kts 293°
2026-05-07 20:44 38.90587 1.49725 29960 ft 379 kts 294°
2026-05-07 20:44 38.92709 1.43575 29986 ft 378 kts 291°
2026-05-07 20:45 38.94608 1.37247 29992 ft 376 kts 290°
2026-05-07 20:45 38.96278 1.31472 29975 ft 374 kts 290°
2026-05-07 20:46 38.98123 1.25227 29968 ft 374 kts 290°
2026-05-07 20:46 38.99996 1.19002 29966 ft 373 kts 290°
2026-05-07 20:47 39.01866 1.12780 29953 ft 371 kts 291°
2026-05-07 20:47 39.03702 1.06626 29974 ft 367 kts 291°
2026-05-07 20:48 39.05532 1.00496 29980 ft 367 kts 291°
2026-05-07 20:48 39.07353 0.94374 29980 ft 366 kts 291°
2026-05-07 20:49 39.09162 0.88255 29976 ft 365 kts 291°
2026-05-07 20:49 39.10971 0.82139 29974 ft 365 kts 291°
2026-05-07 20:50 39.12779 0.76014 29982 ft 366 kts 290°
2026-05-07 20:50 39.14587 0.69881 29984 ft 366 kts 290°
2026-05-07 20:51 39.16380 0.63781 29990 ft 366 kts 290°
2026-05-07 20:51 39.18181 0.57643 29995 ft 366 kts 290°
2026-05-07 20:52 39.19974 0.51502 29997 ft 366 kts 290°
2026-05-07 20:52 39.21758 0.45360 29999 ft 365 kts 290°
2026-05-07 20:53 39.23544 0.39224 29997 ft 365 kts 290°
2026-05-07 20:53 39.25327 0.33086 29998 ft 365 kts 290°
2026-05-07 20:54 39.27097 0.26986 29991 ft 365 kts 290°
2026-05-07 20:54 39.28877 0.20844 29993 ft 365 kts 290°
2026-05-07 20:55 39.30649 0.14697 29992 ft 365 kts 290°
2026-05-07 20:55 39.32418 0.08546 29992 ft 365 kts 290°
2026-05-07 20:56 39.34186 0.02391 29996 ft 365 kts 290°
2026-05-07 20:56 39.35951 -0.03765 30007 ft 365 kts 290°
2026-05-07 20:57 39.37710 -0.09923 30003 ft 365 kts 290°
2026-05-07 20:57 39.39467 -0.16083 30002 ft 365 kts 290°
2026-05-07 20:58 39.41219 -0.22245 30002 ft 365 kts 290°
2026-05-07 20:58 39.42686 -0.27417 30003 ft 365 kts 290°
2026-05-07 20:59 39.43621 -0.30840 30003 ft 364 kts 289°
2026-05-07 20:59 39.44959 -0.35669 30003 ft 364 kts 290°
2026-05-07 21:00 39.46322 -0.40413 29997 ft 364 kts 290°
2026-05-07 21:00 39.47979 -0.46199 29997 ft 364 kts 290°
2026-05-07 21:01 39.50191 -0.51937 30000 ft 365 kts 298°
2026-05-07 21:01 39.52722 -0.57643 30003 ft 365 kts 298°
2026-05-07 21:02 39.55162 -0.63164 29993 ft 366 kts 298°
2026-05-07 21:02 39.57684 -0.68890 29991 ft 365 kts 298°
2026-05-07 21:03 39.60202 -0.74619 30019 ft 365 kts 298°
2026-05-07 21:03 39.62721 -0.80353 29998 ft 365 kts 298°
2026-05-07 21:04 39.65225 -0.86054 29991 ft 367 kts 297°
2026-05-07 21:04 39.67746 -0.91815 29995 ft 367 kts 297°
2026-05-07 21:05 39.70266 -0.97600 29962 ft 368 kts 297°
2026-05-07 21:05 39.72800 -1.03395 29965 ft 369 kts 297°
2026-05-07 21:06 39.75329 -1.09196 29965 ft 369 kts 297°
2026-05-07 21:06 39.77855 -1.14994 29803 ft 367 kts 297°
2026-05-07 21:06 39.79107 -1.17864 29538 ft 364 kts 297°
2026-05-07 21:07 39.80352 -1.20722 29286 ft 363 kts 297°
2026-05-07 21:07 39.81596 -1.23577 29007 ft 362 kts 297°
2026-05-07 21:07 39.82834 -1.26421 28741 ft 361 kts 297°
2026-05-07 21:07 39.84065 -1.29265 28474 ft 360 kts 297°
2026-05-07 21:08 39.85272 -1.32068 28215 ft 360 kts 297°
2026-05-07 21:08 39.86493 -1.34911 27953 ft 359 kts 297°
2026-05-07 21:08 39.87714 -1.37750 27698 ft 359 kts 297°
2026-05-07 21:08 39.88936 -1.40583 27446 ft 359 kts 297°
2026-05-07 21:09 39.90161 -1.43416 27183 ft 359 kts 297°
2026-05-07 21:09 39.91382 -1.46247 26936 ft 359 kts 297°
2026-05-07 21:09 39.92603 -1.49081 26688 ft 358 kts 297°
2026-05-07 21:09 39.93823 -1.51914 26441 ft 358 kts 297°
2026-05-07 21:10 39.95038 -1.54743 26194 ft 358 kts 297°
2026-05-07 21:10 39.96251 -1.57574 25962 ft 357 kts 297°
2026-05-07 21:10 39.97461 -1.60397 25705 ft 356 kts 298°